Hourly Data Report for February 06, 2002

SHERBROOKE A
QUEBEC

45°26'00.000" N
71°41'00.000" W
241.40 m
7028124
71610
YSC

Download Data

Hourly Data (February 2002)
Hourly Data Report for February 6, 2002
TIME
LST
Temp Definition
°C
Dew Point Definition
°C
Rel Hum Definition
%
Precip. Amount Definition
mm

Wind Dir Definition
10's deg

Wind Spd Definition
km/h
Visibility Definition
km
Stn Press Definition
kPa
Hmdx Definition


Wind Chill Definition


Weather Definition


00:00 -20.6 -24.3 72   21 6 15.0 98.49   -26  
01:00 -21.5 -25.1 73   22 6 15.0 98.52   -27  
02:00 -16.5 -19.6 77   25 9 15.0 98.59   -23  
03:00 -16.9 -20.6 73   28 9 15.0 98.59   -23  
04:00 -16.7 -20.4 73   29 7 15.0 98.70   -22  
05:00 -16.7 -21.0 69   28 7 15.0 98.80   -22  
06:00 -18.1 -22.3 70   29 7 15.0 98.86   -23  
07:00 -17.3 -22.2 66   28 11 15.0 98.96   -24  
08:00 -17.3 -22.3 65   31 9 24.1 99.05   -24 Cloudy
09:00 -16.7 -21.9 64   26 7 24.1 99.08   -22 Snow Showers
10:00 -16.0 -21.5 63   26 9 6.4 99.04   -22 Snow Showers
11:00 -14.9 -20.5 62   26 13 12.9 99.00   -22 Snow Showers
12:00 -13.6 -19.1 63   26 19 11.3 98.95   -22 Snow Showers
13:00 -12.0 -18.1 60   25 9 24.1 98.91   -17 Snow Showers
14:00 -11.0 -17.1 61   23 4 19.3 98.83   -13 Snow Showers
15:00 -10.6 -16.4 62   19 9 9.7 98.80   -16 Snow Showers
16:00 -9.8 -15.5 63   23 11 24.1 98.77   -15 Snow Showers
17:00 -9.7 -14.8 66   18 4 4.8 98.79   -12 Snow Showers
18:00 -9.8 -13.6 74   13 4 4.8 98.78   -12 Snow
19:00 -9.7 -13.2 76   10 4 8.0 98.76   -12 Snow
20:00 -9.6 -13.0 76     0 12.9 98.77     Snow
21:00 -9.3 -12.6 77   10 4 15.0 98.75   -12 Snow
22:00 -9.2 -12.5 77   5 4 15.0 98.73   -11 Snow
23:00 -8.8 -12.1 77   5 4 15.0 98.70   -11  

Notes on Data Quality.

Legend

  • E = Estimated
  • M = Missing
  • NA = Not Available*
  • [empty] = Indicates an unobserved value
Date modified: